| time (UTC) | temp F | wind direction | speed MPH | gust MPH | rain 1hr in | rain 24hr in | rain mn in | humidity % | barometer mb |
| 20260901160057 | 88 | 174 | 1.0 | 5.0 | 0.00 | 0.03 | 0.00 | 53 | 1012.6 |
| 20260901154553 | 87 | 160 | 1.0 | 4.0 | 0.00 | 0.11 | 0.00 | 55 | 1012.6 |
| 20260901153048 | 85 | 98 | 1.0 | 5.0 | 0.00 | 0.11 | 0.00 | 57 | 1012.3 |
| 20260901151554 | 85 | 197 | 1.0 | 7.0 | 0.00 | 0.11 | 0.00 | 57 | 1012.4 |
| 20260901150046 | 84 | 112 | 0.0 | 6.0 | 0.00 | 0.11 | 0.00 | 57 | 1012.4 |
| 20260901144538 | 83 | 13 | 1.0 | 3.0 | 0.00 | 0.18 | 0.00 | 59 | 1012.3 |
| 20260901143039 | 82 | 120 | 0.0 | 3.0 | 0.00 | 0.18 | 0.00 | 60 | 1012.1 |
| 20260901141542 | 81 | 30 | 0.0 | 2.0 | 0.00 | 0.18 | 0.00 | 64 | 1012.1 |
| 20260901140032 | 81 | 20 | 0.0 | 1.0 | 0.00 | 0.18 | 0.00 | 65 | 1012.2 |
| 20260901134530 | 80 | 122 | 0.0 | 2.0 | 0.00 | 0.18 | 0.00 | 69 | 1012.1 |
| 20260901133027 | 78 | 85 | 0.0 | 2.0 | 0.00 | 0.18 | 0.00 | 72 | 1011.9 |
| 20260901131525 | 77 | 78 | 0.0 | 2.0 | 0.00 | 0.18 | 0.00 | 74 | 1011.5 |
| 20260901130024 | 76 | 131 | 0.0 | 1.0 | 0.00 | 0.18 | 0.00 | 74 | 1011.5 |
| 20260901124524 | 76 | 121 | 0.0 | 1.0 | 0.00 | 0.18 | 0.00 | 75 | 1011.6 |
| 20260901123031 | 77 | 121 | 0.0 | 1.0 | 0.00 | 0.18 | 0.00 | 74 | 1011.5 |
| 20260901121520 | 77 | 126 | 0.0 | 1.0 | 0.00 | 0.18 | 0.00 | 74 | 1011.3 |
| 20260901120021 | 77 | 128 | 0.0 | 1.0 | 0.00 | 0.18 | 0.00 | 73 | 1011.1 |
| 20260901114519 | 76 | 134 | 0.0 | 1.0 | 0.00 | 0.18 | 0.00 | 74 | 1011.0 |
| 20260901113017 | 77 | 94 | 0.0 | 0.0 | 0.00 | 0.18 | 0.00 | 73 | 1011.1 |
| 20260901111515 | 77 | 93 | 0.0 | 1.0 | 0.00 | 0.18 | 0.00 | 72 | 1010.9 |
| 20260901110014 | 77 | 39 | 0.0 | 2.0 | 0.00 | 0.18 | 0.00 | 71 | 1010.8 |
| 20260901104512 | 78 | 105 | 0.0 | 1.0 | 0.00 | 0.18 | 0.00 | 71 | 1010.9 |
| 20260901103011 | 78 | 122 | 0.0 | 2.0 | 0.00 | 0.18 | 0.00 | 70 | 1011.1 |
| 20260901101513 | 78 | 109 | 0.0 | 0.0 | 0.00 | 0.18 | 0.00 | 71 | 1011.1 |
| 20260901100010 | 78 | 105 | 0.0 | 1.0 | 0.00 | 0.18 | 0.00 | 71 | 1011.0 |
| 20260901094510 | 78 | 89 | 0.0 | 1.0 | 0.00 | 0.18 | 0.00 | 71 | 1011.1 |
| 20260901093008 | 78 | 104 | 0.0 | 0.0 | 0.00 | 0.18 | 0.00 | 70 | 1011.1 |
| 20260901091610 | 78 | 105 | 0.0 | 0.0 | 0.00 | 0.18 | 0.00 | 70 | 1011.2 |
| 20260901090007 | 78 | 77 | 0.0 | 0.0 | 0.00 | 0.18 | 0.00 | 69 | 1011.2 |
| 20260901084504 | 79 | 98 | 0.0 | 1.0 | 0.00 | 0.18 | 0.00 | 69 | 1011.2 |
| 20260901083003 | 79 | 102 | 0.0 | 2.0 | 0.00 | 0.18 | 0.00 | 68 | 1011.2 |
| 20260901081503 | 79 | 104 | 0.0 | 4.0 | 0.00 | 0.18 | 0.00 | 68 | 1011.2 |
| 20260901080113 | 79 | 131 | 0.0 | 0.0 | 0.00 | 0.00 | 0.00 | 67 | 1011.1 |
| 20260901074623 | 79 | 112 | 1.0 | 4.0 | 0.00 | 0.18 | 0.00 | 67 | 1011.1 |
| 20260901073100 | 80 | 156 | 0.0 | 3.0 | 0.00 | 0.18 | 0.00 | 67 | 1011.1 |
| 20260901071559 | 80 | 138 | 1.0 | 3.0 | 0.00 | 0.18 | 0.00 | 67 | 1011.2 |
| 20260901070054 | 80 | 82 | 0.0 | 2.0 | 0.00 | 0.18 | 0.00 | 67 | 1011.0 |
| 20260901064554 | 80 | 117 | 0.0 | 3.0 | 0.00 | 0.18 | 0.18 | 65 | 1010.8 |
| 20260901063102 | 81 | 131 | 0.0 | 5.0 | 0.00 | 0.18 | 0.18 | 64 | 1010.8 |
| 20260901061553 | 81 | 89 | 1.0 | 4.0 | 0.00 | 0.18 | 0.18 | 62 | 1010.7 |
| 20260901060052 | 81 | 143 | 1.0 | 3.0 | 0.00 | 0.18 | 0.18 | 60 | 1010.8 |
| 20260901054554 | 82 | 39 | 0.0 | 3.0 | 0.00 | 0.20 | 0.18 | 59 | 1010.8 |
| 20260901053059 | 82 | 160 | 0.0 | 4.0 | 0.00 | 0.20 | 0.18 | 58 | 1010.7 |
| 20260901051554 | 82 | 117 | 0.0 | 2.0 | 0.00 | 0.20 | 0.18 | 57 | 1010.7 |
| 20260901050049 | 82 | 150 | 1.0 | 3.0 | 0.00 | 0.20 | 0.18 | 56 | 1010.7 |
| 20260901044553 | 83 | 155 | 1.0 | 5.0 | 0.00 | 0.28 | 0.18 | 55 | 1010.7 |
| 20260901043048 | 83 | 96 | 1.0 | 4.0 | 0.00 | 0.28 | 0.18 | 53 | 1010.6 |
| 20260901041613 | 83 | 158 | 0.0 | 2.0 | 0.00 | 0.28 | 0.18 | 52 | 1010.8 |
| 20260901040113 | 84 | 253 | 1.0 | 4.0 | 0.00 | 0.28 | 0.18 | 50 | 1010.5 |
| 20260901034549 | 84 | 156 | 1.0 | 5.0 | 0.00 | 0.28 | 0.18 | 49 | 1010.4 |
| 20260901033045 | 84 | 139 | 1.0 | 6.0 | 0.00 | 0.28 | 0.18 | 51 | 1010.3 |
| 20260901031544 | 85 | 148 | 1.0 | 6.0 | 0.00 | 0.28 | 0.18 | 51 | 1010.1 |
| 20260901030043 | 85 | 229 | 0.0 | 3.0 | 0.00 | 0.28 | 0.18 | 47 | 1009.9 |
| 20260901024548 | 85 | 134 | 0.0 | 3.0 | 0.00 | 0.28 | 0.18 | 46 | 1009.6 |
| 20260901023043 | 85 | 39 | 0.0 | 2.0 | 0.00 | 0.28 | 0.18 | 46 | 1009.4 |
| 20260901021542 | 85 | 30 | 0.0 | 0.0 | 0.00 | 0.28 | 0.18 | 46 | 1009.5 |
| 20260901020043 | 86 | 39 | 0.0 | 1.0 | 0.00 | 0.28 | 0.18 | 46 | 1009.0 |
| 20260901014540 | 86 | 39 | 0.0 | 1.0 | 0.00 | 0.28 | 0.18 | 46 | 1009.2 |
| 20260901013040 | 87 | 37 | 0.0 | 2.0 | 0.00 | 0.28 | 0.18 | 46 | 1008.9 |
| 20260901011541 | 88 | 25 | 0.0 | 4.0 | 0.00 | 0.28 | 0.18 | 44 | 1009.1 |
| 20260901010051 | 89 | 79 | 1.0 | 4.0 | 0.00 | 0.28 | 0.18 | 43 | 1009.1 |
| 20260901004539 | 90 | 148 | 0.0 | 4.0 | 0.00 | 0.28 | 0.18 | 42 | 1009.1 |
| 20260901003039 | 90 | 151 | 0.0 | 1.0 | 0.00 | 0.28 | 0.18 | 41 | 1009.3 |
| 20260901001539 | 91 | 138 | 0.0 | 3.0 | 0.00 | 0.28 | 0.18 | 40 | 1009.4 |
| 20260901000040 | 90 | 212 | 1.0 | 5.0 | 0.00 | 0.28 | 0.18 | 41 | 1009.5 |
| 20260831234536 | 91 | 184 | 3.0 | 6.0 | 0.00 | 0.28 | 0.18 | 40 | 1009.6 |
| 20260831233041 | 89 | 148 | 3.0 | 6.0 | 0.00 | 0.28 | 0.18 | 44 | 1009.6 |
| 20260831231536 | 89 | 238 | 3.0 | 8.0 | 0.00 | 0.28 | 0.18 | 46 | 1009.6 |
| 20260831230031 | 88 | 63 | 2.0 | 7.0 | 0.00 | 0.28 | 0.18 | 48 | 1009.8 |
| 20260831224530 | 88 | 347 | 3.0 | 9.0 | 0.00 | 0.28 | 0.18 | 46 | 1010.0 |
| 20260831223029 | 88 | 127 | 3.0 | 9.0 | 0.00 | 0.28 | 0.18 | 45 | 1010.1 |
| 20260831221535 | 88 | 124 | 4.0 | 10.0 | 0.00 | 0.28 | 0.18 | 45 | 1010.4 |
| 20260831220027 | 88 | 215 | 5.0 | 10.0 | 0.00 | 0.28 | 0.18 | 47 | 1010.9 |
| 20260831214525 | 87 | 106 | 3.0 | 9.0 | 0.00 | 0.28 | 0.18 | 51 | 1011.5 |
| 20260831213023 | 86 | 153 | 4.0 | 11.0 | 0.00 | 0.28 | 0.18 | 52 | 1011.9 |
| 20260831211520 | 86 | 165 | 4.0 | 9.0 | 0.00 | 0.28 | 0.18 | 53 | 1012.1 |
| 20260831210019 | 85 | 131 | 6.0 | 13.0 | 0.00 | 0.28 | 0.18 | 53 | 1012.3 |
| 20260831204516 | 84 | 67 | 6.0 | 13.0 | 0.00 | 0.28 | 0.18 | 56 | 1012.5 |
| 20260831203015 | 84 | 46 | 4.0 | 10.0 | 0.00 | 0.28 | 0.18 | 58 | 1012.7 |
| 20260831201521 | 83 | 106 | 7.0 | 14.0 | 0.00 | 0.28 | 0.18 | 60 | 1012.9 |
| 20260831200010 | 82 | 117 | 8.0 | 17.0 | 0.00 | 0.28 | 0.18 | 63 | 1012.8 |
| 20260831194508 | 80 | 105 | 6.0 | 12.0 | 0.00 | 0.28 | 0.18 | 71 | 1012.8 |
| 20260831193008 | 78 | 155 | 4.0 | 13.0 | 0.00 | 0.28 | 0.18 | 80 | 1012.9 |
| 20260831191505 | 75 | 83 | 7.0 | 12.0 | 0.00 | 0.28 | 0.18 | 92 | 1013.0 |
| 20260831190010 | 74 | 195 | 4.0 | 10.0 | 0.00 | 0.28 | 0.18 | 92 | 1012.9 |
| 20260831184505 | 73 | 240 | 3.0 | 12.0 | 0.00 | 0.28 | 0.18 | 92 | 1013.1 |
| 20260831183003 | 73 | 145 | 4.0 | 10.0 | 0.00 | 0.28 | 0.18 | 92 | 1012.9 |
| 20260831181502 | 74 | 145 | 4.0 | 9.0 | 0.00 | 0.28 | 0.18 | 93 | 1013.0 |
| 20260831180001 | 74 | 176 | 4.0 | 6.0 | 0.00 | 0.28 | 0.18 | 93 | 1013.2 |
| 20260831174501 | 74 | 138 | 3.0 | 7.0 | 0.00 | 0.28 | 0.18 | 93 | 1013.3 |
| 20260831173101 | 74 | 104 | 0.0 | 6.0 | 0.00 | 0.28 | 0.18 | 93 | 1013.7 |
| 20260831171557 | 73 | 68 | 1.0 | 5.0 | 0.00 | 0.28 | 0.18 | 93 | 1013.5 |
| 20260831170058 | 73 | 69 | 1.0 | 7.0 | 0.02 | 0.28 | 0.18 | 93 | 1013.2 |
| 20260831164557 | 73 | 123 | 1.0 | 5.0 | 0.05 | 0.28 | 0.18 | 93 | 1013.2 |
| 20260831163054 | 73 | 45 | 3.0 | 6.0 | 0.07 | 0.28 | 0.18 | 93 | 1012.9 |
| 20260831161554 | 73 | 13 | 3.0 | 6.0 | 0.10 | 0.28 | 0.18 | 93 | 1013.1 |